Location: Faicchio
(41.2833°N, 14.4833°E)
Time: 05:55:33
(UTC+00:00)

Meteor 1-28 Rocket - Pass Details

Date: 15 June 2025
Orbit: 442 x 455 km, 97.6° (Epoch: 16 July)

Event Time Altitude Azimuth Distance (km) Brightness Sun altitude
Rises 02:40:58 0° 174° (S) 2,460 6.3 -8.0°
Reaches altitude 10° 02:43:01 10° 179° (S) 1,590 5.3 -7.7°
Maximum altitude 02:46:23 59° 259° (W) 532 3.0 -7.2°
Drops below altitude 10° 02:49:47 10° 340° (NNW) 1,598 6.0 -6.7°
Sets 02:51:50 0° 344° (NNW) 2,473 7.0 -6.4°
